Location: Brno
(49.2000°N, 16.6330°E)
Time: 22:20:44
(UTC+02:00)

BREEZE M DEB (TANK) - Visible Passes

Search period start: 30 May 2016 00:00
Search period end: 09 June 2016 00:00
Orbit: 292 x 12030 km, 49.5° (Epoch: 30 May)

Date Brightness Start Highest point End Pass type
(mag) Time Alt. Az. Time Alt. Az. Time Alt. Az.
30 May 7.7 02:00:37 10° NW 02:38:50 17° WNW 03:02:02 10° WSW visible
30 May 7.3 20:15:57 10° WNW 21:55:50 76° SW 22:33:49 14° SE visible
31 May 7.6 01:03:41 10° NW 01:57:43 24° W 02:24:55 10° SW visible
31 May 7.4 19:26:34 10° W 21:05:42 82° SW 21:50:41 10° SE visible
01 Jun 7.5 00:09:14 10° NW 01:15:48 32° W 01:44:09 12° SW visible
01 Jun 7.3 23:16:08 10° NW 00:33:00 40° W 01:01:36 15° SSW visible
02 Jun 7.3 22:23:59 10° NW 23:49:11 49° WSW 00:19:04 17° SSW visible
03 Jun 7.3 21:32:37 10° WNW 23:04:12 57° WSW 23:36:32 16° S visible
04 Jun 7.3 20:41:59 10° WNW 22:17:49 65° WSW 22:54:02 14° SSE visible
05 Jun 8.0 01:36:58 10° NW 02:09:49 15° WNW 02:32:39 10° W visible
05 Jun 7.4 19:52:05 10° WNW 21:29:50 73° SW 22:11:32 10° SSE visible
06 Jun 7.8 00:38:32 10° NW 01:29:02 22° WNW 01:58:03 10° WSW visible
06 Jun 7.7 23:43:44 10° NW 00:47:26 29° W 01:19:22 10° SW visible
07 Jun 7.5 22:50:41 10° NW 00:04:55 37° W 00:38:46 10° SSW visible
08 Jun 7.5 21:58:46 10° NW 23:21:24 45° W 23:57:00 10° SSW visible
